| time (UTC) | temp F | wind direction | speed knots | gust knots | rain 1hr in | rain 24hr in | rain mn in | humidity % | barometer mb |
| 20260903211542 | 73 | 298 | 0.0 | 0.0 | 0.00 | 0.08 | 0.08 | 88 | 1011.6 |
| 20260903210042 | 74 | 298 | 0.0 | 1.7 | 0.00 | 0.08 | 0.08 | 85 | 1011.5 |
| 20260903204532 | 74 | 134 | 0.0 | 0.9 | 0.00 | 0.08 | 0.08 | 86 | 1011.5 |
| 20260903203037 | 73 | 134 | 0.0 | 0.9 | 0.00 | 0.08 | 0.08 | 87 | 1011.6 |
| 20260903201525 | 73 | 101 | 0.0 | 2.6 | 0.00 | 0.08 | 0.08 | 85 | 1011.6 |
| 20260903200026 | 73 | 306 | 0.0 | 0.9 | 0.00 | 0.08 | 0.08 | 87 | 1011.8 |
| 20260903194516 | 72 | 94 | 0.0 | 1.7 | 0.00 | 0.08 | 0.08 | 87 | 1012.0 |
| 20260903193013 | 71 | 99 | 0.0 | 1.7 | 0.00 | 0.08 | 0.08 | 88 | 1012.2 |
| 20260903191519 | 71 | 99 | 0.0 | 0.9 | 0.00 | 0.08 | 0.08 | 89 | 1012.3 |
| 20260903190007 | 70 | 99 | 0.0 | 1.7 | 0.00 | 0.08 | 0.08 | 89 | 1012.3 |
| 20260903184504 | 70 | 144 | 0.0 | 1.7 | 0.00 | 0.08 | 0.08 | 89 | 1012.6 |
| 20260903183006 | 70 | 299 | 0.0 | 1.7 | 0.00 | 0.08 | 0.08 | 90 | 1012.7 |
| 20260903181601 | 69 | 312 | 0.0 | 1.7 | 0.00 | 0.08 | 0.08 | 91 | 1012.8 |
| 20260903180059 | 69 | 240 | 0.0 | 1.7 | 0.00 | 0.08 | 0.08 | 91 | 1013.0 |
| 20260903174556 | 69 | 292 | 0.0 | 0.9 | 0.00 | 0.08 | 0.08 | 91 | 1013.2 |
| 20260903173056 | 68 | 296 | 0.0 | 1.7 | 0.00 | 0.08 | 0.08 | 92 | 1013.4 |
| 20260903171556 | 68 | 297 | 0.0 | 1.7 | 0.00 | 0.08 | 0.08 | 92 | 1013.2 |
| 20260903170059 | 68 | 291 | 0.0 | 1.7 | 0.00 | 0.08 | 0.08 | 93 | 1013.0 |
| 20260903164554 | 67 | 291 | 0.0 | 1.7 | 0.00 | 0.08 | 0.08 | 93 | 1013.1 |
| 20260903163102 | 67 | 274 | 0.0 | 1.7 | 0.00 | 0.08 | 0.08 | 94 | 1013.2 |
| 20260903161548 | 67 | 175 | 0.0 | 2.6 | 0.00 | 0.08 | 0.08 | 95 | 1013.2 |
| 20260903160043 | 66 | 293 | 0.0 | 1.7 | 0.00 | 0.08 | 0.08 | 95 | 1013.3 |
| 20260903154540 | 65 | 293 | 0.0 | 2.6 | 0.00 | 0.08 | 0.08 | 96 | 1013.4 |
| 20260903153037 | 65 | 293 | 0.0 | 1.7 | 0.00 | 0.08 | 0.08 | 97 | 1013.7 |
| 20260903151536 | 65 | 293 | 0.0 | 0.9 | 0.00 | 0.08 | 0.08 | 97 | 1013.7 |
| 20260903150047 | 64 | 293 | 0.0 | 0.9 | 0.00 | 0.08 | 0.08 | 97 | 1013.9 |
| 20260903144534 | 64 | 293 | 0.0 | 0.9 | 0.00 | 0.08 | 0.08 | 97 | 1014.2 |
| 20260903143036 | 63 | 293 | 0.0 | 0.9 | 0.00 | 0.08 | 0.08 | 98 | 1013.9 |
| 20260903141535 | 63 | 293 | 0.0 | 2.6 | 0.00 | 0.08 | 0.08 | 98 | 1014.0 |
| 20260903140029 | 63 | 341 | 0.0 | 0.0 | 0.00 | 0.08 | 0.08 | 98 | 1014.5 |
| 20260903134528 | 62 | 341 | 0.0 | 0.0 | 0.00 | 0.08 | 0.08 | 98 | 1014.6 |
| 20260903133028 | 62 | 342 | 0.0 | 0.0 | 0.00 | 0.08 | 0.08 | 98 | 1014.5 |
| 20260903131526 | 62 | 341 | 0.0 | 0.0 | 0.00 | 0.08 | 0.08 | 98 | 1014.3 |
| 20260903130024 | 62 | 342 | 0.0 | 0.0 | 0.00 | 0.08 | 0.08 | 98 | 1014.4 |
| 20260903124525 | 62 | 342 | 0.0 | 0.0 | 0.00 | 0.08 | 0.08 | 98 | 1014.5 |
| 20260903123028 | 61 | 341 | 0.0 | 0.0 | 0.00 | 0.08 | 0.08 | 98 | 1014.8 |
| 20260903121520 | 61 | 341 | 0.0 | 0.0 | 0.00 | 0.08 | 0.08 | 98 | 1014.9 |
| 20260903120018 | 61 | 342 | 0.0 | 0.9 | 0.00 | 0.08 | 0.08 | 98 | 1015.1 |
| 20260903114520 | 61 | 340 | 0.0 | 0.9 | 0.00 | 0.08 | 0.08 | 98 | 1015.2 |
| 20260903113017 | 61 | 340 | 0.0 | 0.0 | 0.00 | 0.08 | 0.08 | 98 | 1015.3 |
| 20260903111516 | 61 | 340 | 0.0 | 0.0 | 0.00 | 0.08 | 0.08 | 98 | 1015.3 |
| 20260903110016 | 60 | 340 | 0.0 | 0.9 | 0.00 | 0.08 | 0.08 | 98 | 1015.3 |
| 20260903104516 | 60 | 340 | 0.0 | 0.9 | 0.01 | 0.08 | 0.08 | 97 | 1015.3 |
| 20260903103015 | 60 | 340 | 0.0 | 0.9 | 0.02 | 0.08 | 0.08 | 97 | 1015.3 |
| 20260903101514 | 60 | 341 | 0.0 | 0.0 | 0.03 | 0.08 | 0.08 | 97 | 1015.2 |
| 20260903100022 | 60 | 341 | 0.0 | 0.9 | 0.05 | 0.08 | 0.08 | 97 | 1015.1 |
| 20260903094511 | 60 | 341 | 0.0 | 0.9 | 0.04 | 0.07 | 0.07 | 96 | 1015.2 |
| 20260903093009 | 60 | 341 | 0.0 | 0.0 | 0.03 | 0.06 | 0.06 | 96 | 1015.4 |
| 20260903091508 | 61 | 342 | 0.0 | 0.0 | 0.02 | 0.05 | 0.05 | 96 | 1015.6 |
| 20260903090009 | 61 | 342 | 0.0 | 0.0 | 0.03 | 0.03 | 0.03 | 96 | 1015.7 |
| 20260903084505 | 61 | 342 | 0.0 | 0.9 | 0.03 | 0.03 | 0.03 | 95 | 1015.7 |
| 20260903083003 | 61 | 296 | 0.0 | 0.9 | 0.03 | 0.03 | 0.03 | 93 | 1015.7 |
| 20260903081600 | 63 | 296 | 0.0 | 0.0 | 0.03 | 0.03 | 0.03 | 90 | 1015.9 |
| 20260903080055 | 64 | 296 | 0.0 | 0.0 | 0.00 | 0.00 | 0.00 | 86 | 1015.9 |
| 20260903074555 | 64 | 85 | 0.0 | 1.7 | 0.00 | 0.00 | 0.00 | 85 | 1015.6 |
| 20260903073052 | 64 | 96 | 0.0 | 1.7 | 0.00 | 0.00 | 0.00 | 85 | 1016.1 |
| 20260903071616 | 64 | 97 | 0.0 | 0.0 | 0.00 | 0.00 | 0.00 | 86 | 1016.0 |
| 20260903070100 | 64 | 87 | 0.0 | 0.9 | 0.00 | 0.00 | 0.00 | 85 | 1016.2 |
| 20260903064546 | 64 | 112 | 0.0 | 0.9 | 0.00 | 0.00 | 0.00 | 86 | 1016.5 |
| 20260903063146 | 64 | 112 | 0.0 | 0.9 | 0.00 | 0.00 | 0.00 | 86 | 1016.9 |
| 20260903061543 | 64 | 18 | 0.0 | 0.9 | 0.00 | 0.00 | 0.00 | 86 | 1017.4 |
| 20260903060040 | 64 | 78 | 0.0 | 0.9 | 0.00 | 0.00 | 0.00 | 86 | 1017.8 |
| 20260903054543 | 64 | 78 | 0.0 | 0.9 | 0.00 | 0.00 | 0.00 | 87 | 1018.1 |
| 20260903053037 | 64 | 66 | 0.0 | 0.9 | 0.00 | 0.00 | 0.00 | 87 | 1018.2 |
| 20260903051538 | 64 | 67 | 0.0 | 0.9 | 0.00 | 0.00 | 0.00 | 87 | 1017.9 |
| 20260903050041 | 64 | 69 | 0.0 | 0.0 | 0.00 | 0.00 | 0.00 | 89 | 1017.8 |
| 20260903044532 | 64 | 87 | 0.0 | 0.0 | 0.00 | 0.00 | 0.00 | 90 | 1018.4 |
| 20260903043031 | 64 | 87 | 0.0 | 0.0 | 0.00 | 0.00 | 0.00 | 91 | 1018.6 |
| 20260903041530 | 64 | 87 | 0.0 | 0.0 | 0.00 | 0.00 | 0.00 | 91 | 1018.4 |
| 20260903040027 | 64 | 87 | 0.0 | 0.0 | 0.00 | 0.00 | 0.00 | 91 | 1018.4 |
| 20260903034528 | 64 | 87 | 0.0 | 0.0 | 0.00 | 0.00 | 0.00 | 90 | 1018.4 |
| 20260903033024 | 64 | 87 | 0.0 | 0.0 | 0.00 | 0.00 | 0.00 | 90 | 1018.7 |
| 20260903031522 | 64 | 87 | 0.0 | 0.0 | 0.00 | 0.00 | 0.00 | 90 | 1019.0 |
| 20260903030021 | 64 | 87 | 0.0 | 0.0 | 0.00 | 0.00 | 0.00 | 90 | 1019.1 |
| 20260903024521 | 64 | 87 | 0.0 | 0.0 | 0.00 | 0.00 | 0.00 | 90 | 1019.3 |
| 20260903023033 | 64 | 87 | 0.0 | 0.0 | 0.00 | 0.00 | 0.00 | 89 | 1019.4 |
| 20260903021520 | 64 | 87 | 0.0 | 0.0 | 0.00 | 0.00 | 0.00 | 89 | 1019.2 |
| 20260903020019 | 64 | 87 | 0.0 | 0.0 | 0.00 | 0.00 | 0.00 | 88 | 1019.4 |
| 20260903014522 | 64 | 87 | 0.0 | 0.0 | 0.00 | 0.00 | 0.00 | 87 | 1019.7 |
| 20260903013019 | 64 | 86 | 0.0 | 1.7 | 0.00 | 0.00 | 0.00 | 88 | 1019.5 |
| 20260903011521 | 0 | 0.0 | 0.0 | 0.00 | 0.00 | 0.00 | 1019.1 | ||
| 20260903010010 | 65 | 120 | 0.0 | 1.7 | 0.00 | 0.00 | 0.00 | 87 | 1019.3 |
| 20260903004509 | 65 | 150 | 0.0 | 1.7 | 0.00 | 0.00 | 0.00 | 87 | 1019.3 |
| 20260903003009 | 65 | 97 | 0.0 | 2.6 | 0.00 | 0.00 | 0.00 | 86 | 1019.4 |
| 20260903001519 | 65 | 123 | 0.0 | 3.5 | 0.00 | 0.00 | 0.00 | 85 | 1019.5 |
| 20260903000016 | 66 | 93 | 0.0 | 1.7 | 0.00 | 0.00 | 0.00 | 84 | 1019.6 |
| 20260902234507 | 66 | 117 | 0.0 | 2.6 | 0.00 | 0.00 | 0.00 | 82 | 1020.0 |
| 20260902233009 | 66 | 120 | 0.0 | 2.6 | 0.00 | 0.00 | 0.00 | 81 | 1020.1 |
| 20260902231511 | 66 | 102 | 0.0 | 1.7 | 0.00 | 0.00 | 0.00 | 79 | 1020.3 |
| 20260902230005 | 67 | 134 | 0.0 | 1.7 | 0.00 | 0.00 | 0.00 | 77 | 1020.1 |
| 20260902224508 | 67 | 110 | 0.0 | 2.6 | 0.00 | 0.00 | 0.00 | 75 | 1020.1 |
| 20260902223009 | 68 | 91 | 0.0 | 2.6 | 0.00 | 0.00 | 0.00 | 73 | 1020.6 |
| 20260902221505 | 68 | 170 | 0.0 | 1.7 | 0.00 | 0.00 | 0.00 | 71 | 1020.7 |
| 20260902220003 | 68 | 158 | 0.0 | 3.5 | 0.00 | 0.00 | 0.00 | 69 | 1020.5 |
| 20260902214501 | 68 | 77 | 0.0 | 4.3 | 0.00 | 0.01 | 0.00 | 67 | 1020.3 |
| 20260902213001 | 69 | 161 | 0.0 | 4.3 | 0.00 | 0.01 | 0.00 | 65 | 1020.5 |